Location: Muenchen
(48.1800°N, 11.5800°E)
Time: 00:43:59
(UTC+01:00)

Iridium 36 - Visible Passes

Search period start: 23 November 2014 00:00
Search period end: 03 December 2014 00:00
Orbit: 773 x 776 km, 86.4° (Epoch: 22 November)

Date Brightness Start Highest point End Pass type
(mag) Time Alt. Az. Time Alt. Az. Time Alt. Az.
23 Nov 7.3 06:13:44 10° NNE 06:18:28 34° ENE 06:23:09 10° SE visible
24 Nov 8.1 05:39:49 10° NNE 05:43:38 20° ENE 05:47:25 10° ESE visible
25 Nov 8.5 05:06:50 10° NE 05:08:39 12° ENE 05:10:28 10° E visible
25 Nov 5.7 06:45:01 10° N 06:50:15 78° E 06:55:26 10° S visible
25 Nov 8.1 19:45:08 10° SSW 19:45:12 10° SSW 19:45:12 10° SSW visible
26 Nov 6.7 06:10:39 10° N 06:15:38 44° E 06:20:34 10° SSE visible
26 Nov 7.2 19:10:30 10° S 19:12:08 21° S 19:12:08 21° S visible
27 Nov 7.7 05:36:32 10° NNE 05:40:52 26° ENE 05:45:10 10° SE visible
27 Nov 6.5 18:36:20 10° SSE 18:39:07 30° SE 18:39:07 30° SE visible
27 Nov 7.8 20:17:49 10° SW 20:19:38 18° WSW 20:19:38 18° WSW visible
28 Nov 8.3 05:02:56 10° NNE 05:05:58 15° ENE 05:08:58 10° ESE visible
28 Nov 5.5 06:42:06 10° N 06:47:19 81° W 06:52:30 10° S visible
28 Nov 6.5 18:02:42 10° SE 18:06:13 25° E 18:06:13 25° E visible
28 Nov 6.6 19:42:25 10° SSW 19:46:43 42° W 19:46:43 42° W visible
29 Nov 6.2 06:07:37 10° N 06:12:46 58° E 06:17:52 10° SSE visible
29 Nov 7.0 17:29:51 10° ESE 17:32:47 15° ENE 17:33:24 15° ENE visible
29 Nov 5.5 19:07:33 10° S 19:12:45 78° W 19:13:55 54° NNW visible
29 Nov 8.4 20:52:30 10° W 20:54:20 12° WNW 20:54:26 12° WNW visible
30 Nov 7.2 05:33:22 10° NNE 05:38:04 33° ENE 05:42:44 10° SE visible
30 Nov 5.4 18:33:10 10° SSE 18:38:15 60° E 18:41:17 24° NNE visible
30 Nov 7.8 20:15:33 10° WSW 20:19:21 20° WNW 20:21:49 15° NW visible
01 Dec 8.0 04:59:28 10° NNE 05:03:14 20° ENE 05:06:58 10° ESE visible
01 Dec 5.5 06:39:13 10° N 06:44:21 62° W 06:49:27 10° SSW visible
01 Dec 6.1 17:59:16 10° SSE 18:03:54 34° E 18:08:33 10° NNE visible
01 Dec 7.0 19:39:50 10° SW 19:44:31 34° WNW 19:49:15 10° NNW visible
02 Dec 8.5 04:26:34 10° NE 04:28:14 11° ENE 04:29:54 10° E visible
02 Dec 5.7 06:04:38 10° N 06:09:51 76° E 06:15:02 10° S visible
02 Dec 6.7 17:25:59 10° ESE 17:29:40 20° ENE 17:33:21 10° NNE visible
02 Dec 6.0 19:04:43 10° SSW 19:09:50 60° W 19:14:59 10° N visible
